Weather History for Ely, NV

Change the Weather History Date:

Friday, July 12, 2013

  Actual Average Record
Temperature  
Mean Temperature 67 °F 68 °F  
Max Temperature 87 °F 88 °F 101 °F (2002)
Min Temperature 46 °F 48 °F 37 °F (1983)
Degree Days  
Heating Degree Days 0 1  
Month to date heating degree days 0 15  
Since 1 June heating degree days 95 190  
Since 1 July heating degree days 0 15  
Cooling Degree Days 2 4  
Month to date cooling degree days 92 34  
Year to date cooling degree days 149 58  
Since 1 June cooling degree days 149 57  
Growing Degree Days 16 (Base 50)    
Moisture  
Dew Point 43 °F    
Average Humidity 50    
Maximum Humidity 86    
Minimum Humidity 13    
Precipitation  
Precipitation T in 0.02 in 0.61 in (2008)
Month to date precipitation 0.04 0.18  
Year to date precipitation 3.15 5.28  
Snow  
Snow 0.00 in 0.00 in 0.00 in (1893)
Month to date snowfall 0.0 0.0  
Since 1 June snowfall 0.0 0.1  
Since 1 July snowfall 0.0 0.0  
Snow Depth 0.00 in    
Sea Level Pressure  
Sea Level Pressure 29.89 in    
Wind  
Wind Speed 6 mph (South)    
Max Wind Speed 21 mph    
Max Gust Speed 28 mph    
Visibility 10 miles    
Events Rain , Thunderstorm    
T = Trace of Precipitation, MM = Missing Value Source: NWS Daily Summary

Daily Weather History Graph

Daily Weather History Graph

Search for Another Location

Airport:

Trip Planner

Search our weather history database for the weather conditions in past years. The results will help you decide how hot, cold, wet, or windy it might be!

Date:

Astronomy

Jul. 12, 2013 Rise Set
Actual Time 5:23 AM PDT 8:06 PM PDT
Civil Twilight 4:51 AM PDT 8:38 PM PDT
Nautical Twilight 4:12 AM PDT 9:17 PM PDT
Astronomical Twilight 3:27 AM PDT 10:02 PM PDT
Moon 9:42 AM PDT (7/12) 10:21 PM PDT (7/12)
Length of Visible Light 15h 46m
Length of Day
14h 43m
Waxing Crescent, 18% of the Moon is Illuminated
Jul 12
Waxing Crescent
Jul 15
First Quarter
Jul 22
Full
Jul 29
Last Quarter
Aug 6
New

Hourly Weather History & Observations

Time (PDT) Temp. Dew Point Humidity Pressure Visibility Wind Dir Wind Speed Gust Speed Precip Events Conditions
12:53 AM 59.0 °F 50.0 °F 72% 29.88 in 10.0 mi South 12.7 mph - N/A   Clear
1:53 AM 57.9 °F 51.1 °F 78% 29.92 in 10.0 mi SSW 5.8 mph - N/A   Clear
2:53 AM 57.0 °F 50.0 °F 77% 29.91 in 10.0 mi SSW 8.1 mph - N/A   Clear
3:53 AM 55.0 °F 50.0 °F 83% 29.92 in 10.0 mi ESE 4.6 mph - N/A   Clear
4:53 AM 50.0 °F 46.9 °F 89% 29.94 in 10.0 mi Calm Calm - N/A   Clear
5:53 AM 48.0 °F 45.0 °F 89% 29.96 in 10.0 mi South 8.1 mph - N/A   Clear
6:53 AM 55.9 °F 48.0 °F 75% 29.93 in 10.0 mi SSE 6.9 mph - N/A   Clear
7:53 AM 63.0 °F 50.0 °F 63% 29.92 in 10.0 mi South 3.5 mph - N/A   Clear
8:53 AM 69.1 °F 48.0 °F 47% 29.91 in 10.0 mi Calm Calm - N/A   Clear
9:53 AM 73.9 °F 46.9 °F 38% 29.88 in 10.0 mi NNW 3.5 mph - N/A   Clear
10:53 AM 77.0 °F 45.0 °F 32% 29.86 in 10.0 mi ENE 5.8 mph - N/A   Scattered Clouds
11:53 AM 79.0 °F 42.1 °F 27% 29.85 in 10.0 mi Variable 4.6 mph - N/A   Scattered Clouds
12:53 PM 80.1 °F 42.1 °F 26% 29.83 in 10.0 mi SSE 10.4 mph - N/A   Scattered Clouds
1:53 PM 82.0 °F 39.0 °F 22% 29.81 in 10.0 mi Calm Calm - N/A   Clear
2:53 PM 82.9 °F 37.9 °F 20% 29.78 in 10.0 mi Calm Calm - N/A   Clear
3:53 PM 84.9 °F 35.1 °F 17% 29.76 in 10.0 mi Variable 4.6 mph - N/A   Clear
4:53 PM 87.1 °F 30.9 °F 13% 29.75 in 10.0 mi WSW 12.7 mph 17.3 mph N/A   Partly Cloudy
5:53 PM 84.0 °F 34.0 °F 17% 29.77 in 10.0 mi West 12.7 mph 20.7 mph N/A   Clear
6:53 PM 79.0 °F 37.9 °F 23% 29.78 in 10.0 mi NW 13.8 mph - N/A   Mostly Cloudy
7:15 PM 75.2 °F 41.0 °F 29% 30.08 in 10.0 mi West 9.2 mph - N/A   Scattered Clouds
7:51 PM 75.2 °F 46.4 °F 36% 30.11 in 10.0 mi SE 9.2 mph 20.7 mph N/A   Overcast
7:53 PM 75.0 °F 48.0 °F 38% 29.81 in 10.0 mi SE 8.1 mph 18.4 mph N/A   Overcast
8:53 PM 73.0 °F 43.0 °F 34% 29.82 in 10.0 mi Calm Calm - N/A   Mostly Cloudy
9:00 PM 71.6 °F 44.6 °F 38% 30.14 in 10.0 mi Calm Calm - N/A Thunderstorm Thunderstorm
9:15 PM 71.6 °F 44.6 °F 38% 30.14 in 10.0 mi Calm Calm - 0.00 in Rain Light Rain
9:53 PM 71.1 °F 43.0 °F 36% 29.82 in 10.0 mi South 5.8 mph - 0.00 in   Scattered Clouds
10:53 PM 69.1 °F 41.0 °F 36% 29.83 in 10.0 mi SSW 9.2 mph - N/A   Mostly Cloudy
11:53 PM 66.0 °F 42.1 °F 42% 29.85 in 10.0 mi South 5.8 mph - N/A   Mostly Cloudy